Location: *
(46.3500°N, 10.9000°E)
Time: 19:56:56
(UTC+00:00)

X-37B - Pass Details

Date: 11 August 2022
Orbit: 330 x 340 km, 45.0° (Epoch: 02 September)

Event Time Altitude Azimuth Distance (km) Brightness Sun altitude
Exits shadow 03:06:39 14° 265° (W) 1,079 2.3 -10.3°
Maximum altitude 03:09:00 66° 184° (S) 374 0.3 -10.0°
Drops below altitude 10° 03:11:52 10° 101° (E) 1,284 3.9 -9.6°
Sets 03:13:53 0° 98° (E) 2,123 5.1 -9.3°
